(498119) = 2007 SF9

Discovered at Kitt Peak on 2007-09-10 by Spacewatch.

Orbit

Orbit type: Main Belt

Note: WebGL enabled browser required.

epoch2022-01-21.0
epoch JD2459600.5
perihelion date2021-05-20.12019
perihelion JD2459354.62019
argument of perihelion (°)358.07277
ascending node (°)27.30626
inclination (°)7.17389
eccentricity0.1941828
perihelion distance (AU)1.8181986
Tisserand w.r.t. Jupiter3.6
ΔV w.r.t. Earth (km/sec)8.6
semimajor axis (AU)2.2563413
mean anomaly (°)71.50222
mean daily motion (°/day)0.29080150
aphelion distance (AU)2.694
period (years)3.39
P-vector [x]0.90337144
P-vector [y]0.39512214
P-vector [z]0.16672891
Q-vector [x]-0.42501533
Q-vector [y]0.77291282
Q-vector [z]0.47113452
absolute magnitude18.53
phase slope0.15
uncertainty0
referenceMPO 700888
observations used72
oppositions6
arc length (days)5767
first opposition used2006
last opposition used2022
residual rms (arc-secs)0.35
perturbers coarse indicatorM-v
perturbers precise indicator003Ek
first observation date used2006-04-26.0
last observation date used2022-02-08.0
computer namePan
JD of orbit computation2458026.077676
perihelion JD uncertainty (days)1.1048E-04
argument of perihelion uncertainty (°)4.5631E-05
ascending node uncertainty (°)2.3944E-05
inclination uncertainty (°)3.6459E-06
eccentricity uncertainty 3.1514E-08
perihelion distance uncertainty (AU)7.3609E-08
Minimum Orbit Intersection Distances (in AU)
for orbit epoch: 2458200.5, reference: MPO414069
Mercury1.47837
Venus1.09203
Earth0.818538
Mars0.376457
Jupiter2.75302
Saturn6.82894
Uranus15.5508
Neptune27.559

Observations

72 total observations over interval: 2006 04 26.22013 – 2022 02 08.269789
These data are available for download (format description).

Date (UT) J2000 RA J2000 Dec Magn Location Ref
2006 04 26.22013 14 30 03.33 -17 11 09.8 20.9 R 807 – Cerro Tololo Observatory, La Serena MPS 815506
2006 04 26.30668 14 29 57.43 -17 10 56.7   807 – Cerro Tololo Observatory, La Serena MPS 815506
2007 09 10.44910 01 31 00.96 +03 21 58.4 20.6 V 691 – Steward Observatory, Kitt Peak-Spacewatch MPS 229043
2007 09 10.46668 01 31 00.57 +03 22 00.6 20.4 V 691 – Steward Observatory, Kitt Peak-Spacewatch MPS 229043
2007 09 10.49693 01 30 59.94 +03 22 04.6 20.5 V 691 – Steward Observatory, Kitt Peak-Spacewatch MPS 229043
2007 09 18.42176 01 27 25.03 +03 37 09.2 20.0 V 691 – Steward Observatory, Kitt Peak-Spacewatch MPS 217853
2007 09 18.43686 01 27 24.46 +03 37 10.4 20.0 V 691 – Steward Observatory, Kitt Peak-Spacewatch MPS 217853
2007 09 18.45196 01 27 23.83 +03 37 11.8 20.6 V 691 – Steward Observatory, Kitt Peak-Spacewatch MPS 217853
2007 09 20.46472 01 26 07.57 +03 40 16.3 20.3 V 691 – Steward Observatory, Kitt Peak-Spacewatch MPS 217853
2007 09 20.48231 01 26 06.77 +03 40 17.6 20.5 V 691 – Steward Observatory, Kitt Peak-Spacewatch MPS 217853
2007 09 20.49991 01 26 06.04 +03 40 19.2 20.4 V 691 – Steward Observatory, Kitt Peak-Spacewatch MPS 217853
2007 10 09.30032 01 09 03.74 +04 01 41.4 19.9 V G96 – Mt. Lemmon Survey MPS 229043
2007 10 09.30661 01 09 03.31 +04 01 41.8 19.7 V G96 – Mt. Lemmon Survey MPS 229043
2007 10 09.31294 01 09 02.88 +04 01 42.2 19.7 V G96 – Mt. Lemmon Survey MPS 229043
2007 10 09.31918 01 09 02.48 +04 01 42.6 19.8 V G96 – Mt. Lemmon Survey MPS 229043
2007 10 30.25318 00 48 48.13 +04 40 49.0 20.1 V G96 – Mt. Lemmon Survey MPS 223532
2007 10 30.26145 00 48 47.73 +04 40 50.9 19.1 V G96 – Mt. Lemmon Survey MPS 223532
2007 10 30.26975 00 48 47.34 +04 40 51.3 19.9 V G96 – Mt. Lemmon Survey MPS 223532
2007 10 30.27806 00 48 46.90 +04 40 52.8 18.7 V G96 – Mt. Lemmon Survey MPS 223532
2007 11 01.07072 00 47 30.29 +04 46 24.1   691 – Steward Observatory, Kitt Peak-Spacewatch MPS 223532
2007 11 01.09508 00 47 29.17 +04 46 28.1   691 – Steward Observatory, Kitt Peak-Spacewatch MPS 223532
2007 11 01.11943 00 47 28.15 +04 46 33.5   691 – Steward Observatory, Kitt Peak-Spacewatch MPS 223532
2014 10 05.49723 05 16 14.20 +27 14 22.3 20.5 V G96 – Mt. Lemmon Survey MPS 671828
2014 10 05.50338 05 16 14.58 +27 14 25.1 21.5 V G96 – Mt. Lemmon Survey MPS 671828
2014 10 05.50952 05 16 14.94 +27 14 27.9 21.3 V G96 – Mt. Lemmon Survey MPS 671828
2014 12 01.32327 05 03 16.705 +33 20 01.80 20.3 i F51 – Pan-STARRS 1, Haleakala MPS 671828
2014 12 01.33525 05 03 15.747 +33 20 04.42 20.2 i F51 – Pan-STARRS 1, Haleakala MPS 671828
2014 12 01.34722 05 03 14.799 +33 20 06.81 20.1 i F51 – Pan-STARRS 1, Haleakala MPS 671828
2014 12 29.40894 04 31 51.025 +33 20 29.26 20.7 i F51 – Pan-STARRS 1, Haleakala MPS 815506
2014 12 29.43192 04 31 49.976 +33 20 25.71 20.7 i F51 – Pan-STARRS 1, Haleakala MPS 815506
2014 12 29.44346 04 31 49.437 +33 20 24.00 20.9 i F51 – Pan-STARRS 1, Haleakala MPS 815506
2017 08 18.44311 22 45 27.437 -21 17 55.06 20.7 w F51 – Pan-STARRS 1, Haleakala MPS 810253
2017 08 18.45425 22 45 26.778 -21 17 57.85 20.6 w F51 – Pan-STARRS 1, Haleakala MPS 810253
2017 08 18.46548 22 45 26.113 -21 18 00.57 20.6 w F51 – Pan-STARRS 1, Haleakala MPS 810253
2017 08 18.47672 22 45 25.443 -21 18 03.32 20.6 w F51 – Pan-STARRS 1, Haleakala MPS 810253
2017 08 30.31548 22 33 21.321 -21 55 30.33 20.0 i F51 – Pan-STARRS 1, Haleakala MPS 813372
2017 08 30.32668 22 33 20.564 -21 55 31.93 20.1 i F51 – Pan-STARRS 1, Haleakala MPS 813372
2017 08 30.34919 22 33 19.049 -21 55 34.94 20.2 i F51 – Pan-STARRS 1, Haleakala MPS 813373
2017 09 16.36016 22 16 19.922 -21 52 33.44 20.6 w F51 – Pan-STARRS 1, Haleakala MPS 817019
2017 09 16.37208 22 16 19.272 -21 52 31.62 20.6 w F51 – Pan-STARRS 1, Haleakala MPS 817019
2017 09 16.38392 22 16 18.628 -21 52 30.02 20.7 w F51 – Pan-STARRS 1, Haleakala MPS 817019
2017 09 16.39579 22 16 17.983 -21 52 28.13 20.7 w F51 – Pan-STARRS 1, Haleakala MPS 817019
2017 09 23.34392 22 11 11.097 -21 28 24.45 20.9 w F51 – Pan-STARRS 1, Haleakala MPS 819037
2017 09 23.35490 22 11 10.650 -21 28 21.53 20.8 w F51 – Pan-STARRS 1, Haleakala MPS 819037
2017 09 23.36589 22 11 10.196 -21 28 18.71 20.8 w F51 – Pan-STARRS 1, Haleakala MPS 819037
2017 09 23.37698 22 11 09.737 -21 28 15.70 20.9 w F51 – Pan-STARRS 1, Haleakala MPS 819037
2017 09 29.26089 22 08 08.46 -20 58 00.7 21.3 V G96 – Mt. Lemmon Survey MPS 819037
2017 09 29.26643 22 08 08.29 -20 57 58.9 21.6 V G96 – Mt. Lemmon Survey MPS 819037
2017 09 29.27199 22 08 08.12 -20 57 57.3 21.2 V G96 – Mt. Lemmon Survey MPS 819037
2017 09 29.27748 22 08 07.99 -20 57 55.2 20.5 V G96 – Mt. Lemmon Survey MPS 819037
2019 02 06.01974 11 52 48.86 +09 24 40.8 21.6 G J04 – ESA Optical Ground Station, Tenerife MPS 969716
2019 02 06.03076 11 52 48.54 +09 24 43.8 22.2 G J04 – ESA Optical Ground Station, Tenerife MPS 969716
2019 02 06.04178 11 52 48.14 +09 24 45.8 22.2 G J04 – ESA Optical Ground Station, Tenerife MPS 969716
2022 01 04.325584 08 33 10.80 +31 57 29.7 21.39 G G96 – Mt. Lemmon Survey MPS 1534793
2022 01 04.330819 08 33 10.40 +31 57 31.6 21.59 G G96 – Mt. Lemmon Survey MPS 1534793
2022 01 04.336030 08 33 10.08 +31 57 33.1 21.38 G G96 – Mt. Lemmon Survey MPS 1534793
2022 01 04.341247 08 33 09.72 +31 57 35.3 21.00 G G96 – Mt. Lemmon Survey MPS 1534793
2022 01 27.330880 08 04 29.321 +33 22 27.88 21.09 w F52 – Pan-STARRS 2, Haleakala MPS 1550393
2022 01 27.342306 08 04 28.430 +33 22 29.27 21.19 w F52 – Pan-STARRS 2, Haleakala MPS 1550393
2022 01 27.353796 08 04 27.554 +33 22 29.88 21.18 w F52 – Pan-STARRS 2, Haleakala MPS 1550393
2022 02 02.332350 07 57 26.358 +33 24 43.80 21.38 w F52 – Pan-STARRS 2, Haleakala MPS 1550393
2022 02 02.343882 07 57 25.515 +33 24 43.57 21.46 w F52 – Pan-STARRS 2, Haleakala MPS 1550393
2022 02 02.355355 07 57 24.731 +33 24 43.60 21.32 w F52 – Pan-STARRS 2, Haleakala MPS 1550393
2022 02 02.366933 07 57 23.930 +33 24 43.09 21.47 w F52 – Pan-STARRS 2, Haleakala MPS 1550393
2022 02 03.285781 07 56 23.972 +33 24 17.76 21.33 w F52 – Pan-STARRS 2, Haleakala MPS 1550393
2022 02 03.296622 07 56 23.238 +33 24 17.46 21.51 w F52 – Pan-STARRS 2, Haleakala MPS 1550393
2022 02 03.307444 07 56 22.515 +33 24 16.99 21.42 w F52 – Pan-STARRS 2, Haleakala MPS 1550393
2022 02 03.318220 07 56 21.790 +33 24 16.81 21.44 w F52 – Pan-STARRS 2, Haleakala MPS 1550393
2022 02 08.235645 07 51 25.507 +33 18 50.84 21.62 w F52 – Pan-STARRS 2, Haleakala MPS 1558057
2022 02 08.247038 07 51 24.883 +33 18 49.96 21.54 w F52 – Pan-STARRS 2, Haleakala MPS 1558057
2022 02 08.258398 07 51 24.222 +33 18 49.14 21.55 w F52 – Pan-STARRS 2, Haleakala MPS 1558057
2022 02 08.269789 07 51 23.560 +33 18 48.12 21.45 w F52 – Pan-STARRS 2, Haleakala MPS 1558057